Location: Bacea
(45.9500°N, 22.6667°E)
Time: 21:35:35
(UTC+00:00)

H-2A R/B - Pass Details

Date: 16 October 2021
Orbit: 527 x 651 km, 98.3° (Epoch: 29 November)

Event Time Altitude Azimuth Distance (km) Brightness Sun altitude
Rises 17:13:48 0° 171° (S) 2,937 5.9 -16.8°
Reaches altitude 10° 17:16:02 10° 174° (S) 2,021 5.1 -17.2°
Maximum altitude 17:20:26 67° 258° (WSW) 682 2.9 -18.0°
Drops below altitude 10° 17:24:43 10° 341° (NNW) 1,974 5.5 -18.7°
Sets 17:26:53 0° 344° (NNW) 2,863 6.3 -19.1°
